Theta_e
311 311 311 312 312 312 312 313 313 313 313 314 314 314 314 315 314 308 299 304 308 315 315 308 306 304 304 301 300 299 288 285 288 289 291 295 294 299 305 308 310 318 323 326 330
310 311 311 311 311 312 312 313 313 313 313 314 314 314 314 314 307 301 307 310 312 314 307 303 299 301 297 298 297 292 287 288 293 293 290 292 293 294 302 305 307 317 324 327 328
310 310 310 311 311 311 312 312 313 312 313 313 314 313 313 312 300 299 310 311 312 311 306 305 302 299 294 297 296 293 287 291 293 294 294 291 292 295 300 303 306 308 318 323 324
309 310 310 310 311 311 311 312 312 312 313 313 313 313 313 308 291 303 310 310 312 309 305 302 299 294 291 289 295 289 293 294 294 295 292 290 293 291 294 302 311 311 314 322 322
309 310 310 310 310 310 311 312 312 312 313 312 311 311 308 300 297 308 311 312 309 308 303 299 295 294 289 291 292 289 291 293 294 294 292 293 290 289 290 298 307 310 318 320 321
309 309 309 310 310 310 311 311 312 312 311 311 311 311 304 296 306 308 308 309 308 306 303 301 297 297 292 291 289 292 292 292 293 293 292 290 289 290 291 296 304 310 315 319 321
309 309 309 309 310 310 311 311 311 311 309 310 311 309 302 298 307 308 308 308 309 306 301 304 302 296 295 290 295 293 288 291 291 292 291 292 286 287 292 295 305 309 312 314 317
309 309 309 309 310 310 310 311 311 308 309 310 311 307 299 308 307 306 307 308 310 308 305 305 304 298 294 295 292 289 288 283 289 292 292 290 282 292 293 294 301 309 310 311 311
308 308 309 309 309 309 310 310 307 307 309 310 308 303 296 308 302 305 307 304 306 307 306 305 303 296 295 289 286 286 280 283 286 291 290 288 286 294 297 301 302 308 309 310 310
308 308 309 308 308 309 309 307 305 306 309 308 302 297 300 295 301 303 308 306 303 303 301 300 297 291 291 288 279 282 282 285 284 289 288 288 287 292 296 301 299 307 308 308 308
308 308 308 308 308 309 304 302 296 294 299 292 293 293 296 299 304 305 305 303 303 300 293 297 290 286 288 290 288 285 285 284 286 291 287 285 288 288 296 299 297 305 306 307 308
307 308 307 307 308 307 305 296 295 296 290 295 293 295 297 298 295 300 304 299 298 293 296 293 287 292 293 294 291 287 285 284 287 291 288 285 285 288 292 292 298 301 302 299 304
307 307 307 307 306 305 299 297 303 301 291 289 291 293 294 296 295 296 299 297 295 292 292 287 291 295 295 292 290 291 288 286 284 286 289 287 283 286 290 294 297 300 300 300 300
306 306 306 306 302 299 296 301 303 302 287 284 289 292 295 297 294 299 300 297 296 290 291 291 294 292 292 290 290 288 293 291 288 286 281 288 277 284 288 290 294 297 298 297 299
306 305 305 304 300 296 298 302 303 297 277 285 289 297 296 293 293 295 300 297 291 290 290 287 288 288 289 290 291 289 292 292 289 286 284 284 279 283 288 286 290 293 296 297 298
306 305 304 302 302 300 303 301 297 286 276 282 288 289 291 292 292 295 296 298 296 292 292 289 293 291 289 292 292 294 291 293 289 287 277 281 281 279 282 286 290 293 294 295 297
305 304 302 300 296 302 301 296 284 279 281 280 283 288 287 287 289 290 291 287 283 284 281 288 288 292 292 289 293 289 286 279 276 274 272 283 280 280 287 289 291 292 293 294 295
305 303 301 300 302 301 298 288 276 280 278 283 284 286 283 285 286 288 288 285 288 286 282 279 278 287 291 288 284 285 285 276 273 274 275 282 276 280 289 291 293 293 293 294 294
305 302 301 299 300 299 291 280 282 281 282 281 283 281 281 284 283 285 283 283 286 287 280 278 280 290 290 291 289 285 280 285 280 274 275 277 281 287 290 290 291 291 291 290 291
299 298 297 299 299 295 285 283 279 281 284 284 280 280 278 280 281 282 282 284 285 288 288 285 278 286 289 291 291 288 289 280 280 271 270 276 278 278 285 288 289 288 288 289 289
297 290 294 298 295 289 282 282 279 282 286 283 282 277 281 279 279 281 281 283 285 286 289 287 283 283 287 284 283 285 283 284 283 279 276 273 275 286 287 289 288 288 289 288 289
295 284 294 296 284 283 283 279 283 282 286 284 283 282 282 282 280 280 281 283 285 286 283 288 284 277 282 288 289 287 285 285 277 277 277 279 276 290 289 290 289 287 288 288 288
287 288 295 292 280 280 279 278 281 282 283 283 281 284 285 281 277 281 280 285 286 285 283 286 280 275 276 282 286 284 286 287 285 282 278 275 276 290 289 288 288 286 286 286 287
287 282 287 288 287 284 279 278 277 285 284 285 283 284 281 279 278 277 281 284 285 285 287 287 282 278 273 277 281 280 284 285 284 277 279 278 279 284 286 286 285 285 285 285 286
286 285 286 279 281 283 282 280 279 277 283 285 281 282 281 274 277 274 279 281 284 285 284 282 272 276 279 279 279 280 281 284 282 283 277 280 281 285 286 285 285 286 286 286 286
283 283 283 285 284 282 282 279 280 281 280 279 280 282 282 277 279 275 280 280 280 280 281 281 271 273 269 278 277 276 279 280 282 284 284 284 282 289 287 285 284 285 286 285 285
292 290 289 285 284 280 281 282 282 283 283 285 283 281 281 282 284 284 284 283 281 279 275 275 269 267 267 268 269 266 272 278 281 284 285 280 284 286 284 285 284 284 285 285 286
Wind_Speed
6 8 8 9 10 11 12 12 13 13 13 14 14 14 14 15 18 7 9 5 6 10 14 13 11 13 14 4 5 6 5 9 19 17 16 11 17 18 18 7 12 1 7 14 10
6 8 9 10 11 11 12 13 13 13 14 14 14 14 14 13 10 6 3 3 6 9 11 13 13 13 6 7 4 5 6 12 14 16 12 14 16 19 20 6 13 6 6 12 15
6 7 8 9 11 12 13 13 13 13 13 14 14 14 13 10 5 4 5 7 9 10 9 8 9 8 7 8 8 7 13 15 18 18 15 12 12 16 12 7 3 11 9 8 15
5 7 8 10 11 13 14 14 14 14 14 14 15 13 12 6 2 5 5 6 8 7 6 7 6 4 4 5 8 9 12 14 13 16 10 10 11 12 14 11 13 11 21 13 11
5 7 9 10 12 13 14 15 15 15 15 16 11 9 7 5 4 5 2 7 8 7 6 6 5 5 3 6 12 13 11 13 14 13 7 12 14 13 16 13 11 13 10 10 7
5 8 9 11 12 14 15 15 15 15 15 11 7 5 5 2 2 7 6 5 8 8 8 1 1 3 4 4 8 9 10 12 12 13 8 12 15 9 13 10 9 9 7 6 5
6 8 10 12 14 15 16 16 16 16 12 8 4 4 4 3 3 4 7 3 3 5 6 5 7 1 6 7 9 14 14 12 13 10 7 11 11 13 11 16 2 3 10 10 9
7 9 11 13 14 16 16 17 16 12 8 6 3 5 2 2 4 5 8 3 3 3 4 2 5 3 2 7 7 6 4 4 7 9 7 8 8 12 10 10 5 4 7 11 11
7 9 11 13 15 16 18 17 12 7 3 3 4 3 3 3 3 5 6 5 6 7 3 4 3 4 2 4 4 2 5 1 6 12 5 7 7 12 18 5 2 6 9 9 8
7 9 11 14 15 17 17 12 4 4 4 5 4 2 2 6 6 6 4 3 4 10 8 7 2 2 3 3 8 6 3 4 6 5 3 1 8 14 16 8 12 8 9 7 8
7 9 10 13 15 15 9 2 2 2 3 2 4 3 4 10 3 2 4 5 5 8 4 5 1 11 12 7 2 7 2 4 7 11 9 8 10 16 17 14 13 3 11 10 5
5 8 10 12 14 14 5 3 3 1 2 1 3 3 1 3 4 7 10 3 5 3 9 3 4 10 10 11 9 2 5 9 10 14 13 18 19 12 17 14 9 10 16 12 6
4 6 9 12 13 4 5 4 2 2 3 3 1 3 3 4 5 5 7 4 4 7 7 5 6 9 11 11 13 17 7 5 4 2 5 6 16 15 10 11 7 16 14 13 10
3 4 8 14 5 2 3 3 2 2 3 1 2 1 2 2 1 2 3 2 4 5 7 3 8 9 10 9 10 10 14 16 7 1 4 3 4 14 13 12 18 15 15 12 13
2 2 5 8 4 1 3 3 2 3 2 3 2 2 2 2 5 2 3 2 5 7 3 4 10 8 5 5 12 3 4 4 12 4 11 8 7 10 9 18 18 16 14 12 11
3 0 4 2 1 2 2 2 2 3 3 1 2 4 2 3 2 6 2 2 2 4 4 3 1 3 4 11 6 19 5 7 3 4 9 11 4 11 11 14 14 14 12 13 12
4 2 2 1 2 2 2 3 3 2 2 3 2 3 3 3 3 4 3 6 3 5 5 5 5 1 6 6 4 18 8 1 6 7 3 7 10 6 8 8 11 11 11 12 11
7 4 4 4 3 1 3 2 1 1 2 1 2 3 2 5 3 3 3 3 6 4 2 3 4 8 9 3 2 5 5 3 4 3 2 8 6 3 6 7 8 9 10 12 12
10 2 2 3 3 2 1 2 3 3 3 3 1 1 1 2 2 3 3 2 4 5 4 4 3 4 1 3 4 8 6 3 3 1 6 4 3 2 7 7 8 9 10 9 9
4 3 2 4 3 2 4 3 3 2 1 1 3 1 0 1 2 3 2 1 2 3 1 3 5 2 5 4 2 3 4 2 4 3 3 3 6 5 5 6 7 8 8 8 8
3 3 2 3 1 3 3 4 2 3 1 1 3 2 1 1 1 1 2 2 2 2 3 2 2 5 3 4 3 6 3 4 0 2 3 4 3 5 8 7 6 6 6 7 7
3 2 2 3 3 1 3 4 1 4 2 1 1 2 4 4 3 2 2 4 2 2 2 4 1 3 3 3 2 2 2 3 3 2 2 1 2 5 8 7 7 6 6 6 8
5 3 2 2 4 3 2 1 3 4 5 5 3 2 2 3 1 4 2 2 4 2 4 2 2 2 5 4 2 2 2 3 1 1 2 3 3 6 7 6 6 8 7 7 7
4 5 2 2 1 3 5 4 4 4 3 4 4 4 2 1 3 2 4 3 3 2 1 3 2 2 2 0 2 3 2 0 1 1 1 2 7 7 8 8 6 6 7 8 7
1 3 4 7 7 5 4 6 5 6 5 6 2 7 6 4 3 4 3 5 3 4 2 1 3 1 2 3 5 5 4 5 3 3 2 2 8 11 9 9 8 7 7 7 7
7 6 1 4 3 14 8 10 10 5 9 5 5 11 7 5 5 7 6 4 4 4 3 1 1 2 3 2 4 5 8 6 7 4 5 4 4 8 8 9 7 7 7 6 6
2 1 4 8 7 8 7 7 13 10 8 6 12 5 10 7 7 6 6 6 4 6 3 1 5 2 4 3 4 7 10 10 5 4 4 5 5 12 8 7 7 7 8 6 5
Wind_Direction
1 357 352 352 352 348 346 343 341 339 339 334 332 334 334 335 315 247 33 340 333 330 317 331 342 353 325 279 279 318 266 250 251 257 275 281 290 293 294 281 305 176 43 115 125
357 351 347 349 347 345 342 339 337 334 334 328 326 329 329 332 298 60 12 340 307 324 314 342 346 338 320 277 260 205 247 261 293 303 350 346 348 329 320 235 274 78 24 120 127
350 344 344 344 342 340 338 334 332 330 328 323 320 323 322 318 261 51 27 355 344 324 326 334 327 2 336 334 276 240 253 284 291 305 332 334 315 329 338 306 162 356 160 211 141
338 341 340 340 339 337 333 330 330 328 325 318 314 314 313 287 43 23 19 331 313 278 325 348 339 307 324 304 309 295 286 284 282 297 325 284 309 305 307 284 330 339 305 187 174
334 331 338 335 336 333 329 328 327 324 322 321 319 313 298 238 61 33 311 342 293 338 6 11 324 355 283 315 304 277 281 281 294 284 296 301 288 283 284 273 313 319 323 176 178
324 328 332 331 331 329 326 325 324 322 323 319 326 311 264 256 331 18 326 325 8 353 338 85 293 10 286 276 283 301 302 295 293 295 280 274 291 283 274 266 257 294 325 128 218
319 326 327 328 328 328 325 323 321 319 313 305 313 280 267 59 331 345 351 340 10 352 322 39 98 177 334 271 290 294 287 289 269 239 235 257 273 254 263 273 307 7 46 53 27
314 322 325 328 329 327 324 320 319 313 296 280 271 283 316 125 350 352 352 317 34 280 268 117 130 285 228 298 286 291 309 325 277 226 192 220 294 318 207 255 253 90 64 61 45
310 320 326 330 328 326 321 319 314 302 265 194 224 269 106 141 7 16 323 319 313 257 218 191 145 216 337 277 265 20 315 215 310 137 124 193 312 1 342 155 98 98 78 72 53
306 321 331 330 330 327 325 311 306 292 222 235 263 248 286 336 354 314 4 305 304 295 232 217 131 308 228 332 356 313 324 17 25 350 160 101 312 338 334 3 21 122 109 93 65
308 326 333 332 331 332 336 263 228 177 248 29 12 317 9 336 222 150 338 294 242 260 296 128 93 3 322 313 158 295 107 148 33 7 72 360 354 15 356 356 351 175 101 85 74
312 329 332 331 331 325 286 39 55 310 303 176 299 270 95 337 285 64 344 320 312 20 318 254 56 350 302 305 118 108 45 60 79 94 79 70 46 14 32 5 308 53 72 62 60
313 331 328 325 323 308 68 59 341 297 257 127 41 323 338 346 344 5 6 319 320 313 322 25 347 347 338 20 4 54 61 71 122 290 25 327 49 36 32 3 32 42 56 51 47
289 326 329 322 300 331 59 10 351 317 59 93 152 113 250 307 242 68 29 360 228 326 329 337 338 347 357 20 2 60 108 114 143 236 52 191 71 28 30 53 41 43 42 35 27
226 320 341 355 323 21 1 324 330 255 15 40 30 63 279 340 310 105 144 203 1 325 289 310 330 345 30 350 329 302 295 194 123 61 75 79 75 350 17 35 42 42 39 35 31
192 317 316 218 151 23 301 299 253 53 263 34 292 322 250 69 77 301 130 155 112 328 294 316 233 337 299 292 259 307 247 204 165 72 40 20 115 21 18 20 37 50 48 35 34
164 112 307 339 62 341 289 247 33 144 46 303 347 354 309 33 37 8 61 41 48 46 9 316 8 267 337 328 352 353 357 54 20 30 61 40 58 34 29 40 47 57 54 52 38
148 169 48 53 7 313 254 53 59 305 207 340 314 261 11 353 98 5 353 76 58 50 352 349 306 359 342 62 288 306 2 88 96 45 79 33 35 20 60 58 64 55 52 55 45
152 177 154 35 339 288 68 74 223 207 129 175 168 324 4 114 340 321 83 59 42 18 92 333 279 337 56 314 330 327 42 328 107 92 82 101 64 100 96 66 49 57 48 42 39
159 184 90 331 332 260 74 256 193 297 6 315 193 322 264 11 9 23 114 43 82 55 271 86 302 318 307 294 235 330 290 40 323 94 103 151 172 148 109 85 59 41 40 44 43
141 133 61 312 284 43 181 221 174 209 338 206 180 152 294 148 340 306 103 124 71 31 292 144 216 300 337 28 17 347 19 355 195 29 118 156 180 123 127 106 98 76 57 50 51
141 157 73 300 74 99 190 175 128 154 193 164 327 100 182 155 184 230 359 59 60 343 345 70 66 302 30 93 114 270 329 322 84 328 351 30 170 107 120 112 112 92 75 66 64
129 119 123 278 176 197 101 169 232 161 190 167 189 218 200 209 181 162 170 95 51 329 340 354 106 308 331 339 214 278 73 312 270 280 248 123 209 129 124 129 102 105 91 77 65
129 133 132 248 142 183 147 197 203 230 236 176 149 125 121 172 28 213 173 156 129 80 14 277 114 192 244 207 333 282 192 200 279 65 242 242 141 168 168 142 131 115 97 90 80
135 192 163 176 227 193 151 150 143 174 250 176 196 207 171 157 170 218 278 125 198 148 186 105 143 36 13 351 323 297 283 287 248 281 145 150 156 178 166 152 139 129 117 96 85
143 149 214 161 148 164 186 201 174 160 159 213 215 191 190 162 187 191 154 164 205 159 183 200 139 66 289 356 325 285 270 256 257 257 245 243 154 146 129 106 125 127 111 100 86
178 142 149 158 153 163 199 182 192 144 213 182 192 156 192 195 75 40 85 61 87 146 130 145 117 88 272 330 334 314 228 201 198 216 175 191 149 115 117 144 141 132 122 117 96